SCOUT A DEB, 2889

Orbit data source: Space-Track

SCOUT A DEB, 2889 is space debris in LEO originally from a launch on Fri, 28 Jan 1966 UTC launched from the Air Force Western Test Range (AFWTR). Debris objects in space refer to the collection of defunct objects orbiting the Earth. Examples of debris include non-operational satellites, rocket bodies, and fragments generated from explosions, collisions, or faulty payload assembly.

Loading next visibility...
Identifier
2889, 1966-005E
Orbit
LEO
Country
Flag of USUS
Related business
Manufacturer
Unknown
Mission
Spacecraft
Bus & Motor
Unknown
Mass
Unknown
Launch date (UTC)
1966-01-28 (60 years ago)
Launch vehicle
Unknown
Launch site
Air Force Western Test Range (AFWTR)
Object type
Payload
Rocket body
Debris
Shape & HBR
Unknown shape, 0.1 m
Radar Cross Section
Small (<0.1 m²)

Expand to show TLE details & history
Last TLE update: 2 days ago

TLE from 2 days ago
0 SCOUT A DEB
1 02889U 66005E   26138.51115940  .00000104  00000-0  22818-3 0  9999
2 02889  89.5367 159.3023 0164726 238.7743 249.4347 13.18005311832481
Epoch: 2026-05-18T12:16Z
TLE epoch observation values (Epoch: 2026-05-18T12:16:04.172Z)
Latitude
53.63473°
Longitude
-81.53952°
Altitude
1,246.797 km
Speed
7.215 km/s
True Right ascension
22h 34m 42s
True Declination
53° 28' 51"
Sunlit
Object was in daylight at epoch
Visualization orbit readout
Latitude
Unknown
Longitude
Unknown
Altitude
Unknown
Speed
Unknown
Apparent Right ascension
Unknown
Apparent Declination
Unknown
Sunlit
N/A
Visualization observer readout
Local Sidereal Time
07:49:02
Azimuth
Unknown
Elevation
Unknown
Doppler factor
Unknown
Orbital elements
Apogee altitude
1,314.102 km
Perigee altitude
1,064.787 km
Semi-major axis
7,567.582 km
Eccentricity
0.01647
Inclination
89.5367°
RAAN
159.3023°
Arg. of periapsis
238.7743°
True anomaly
247.68034°
Mean anomaly
249.4347°
Eccentric anomaly
248.55622°
Mean motion
3.29691 °/min
Orbital period
109.19 mins
BSTAR
0.00022818
Loading maneuver chart data...
Computing Atmospheric mass density...
Loading historical data...
Loading historical data...
Loading historical data...
Loading historical data...
Loading historical data...
Loading historical data...
Loading historical data...

Documentation

Showing up to 5 results
|